Change the Weather History Date:

Wednesday, February 12, 2014

  Actual Average Record
Temperature  
Mean Temperature 70 °F -  
Max Temperature 82 °F 88 °F 95 °F (1997)
Min Temperature 58 °F 69 °F 58 °F (2014)
Cooling Degree Days 5    
Growing Degree Days 20 (Base 50)    
Moisture  
Dew Point 54 °F    
Average Humidity 50    
Maximum Humidity 73    
Minimum Humidity 17    
Precipitation  
Precipitation 0.00 in - - ()
Sea Level Pressure  
Sea Level Pressure 29.80 in    
Wind  
Wind Speed 4 mph ()    
Max Wind Speed 14 mph    
Max Gust Speed -    
Visibility 2.4 miles    
Events      
Averages and records for this station are not official NWS values.
T = Trace of Precipitation, MM = Missing Value Source: Averaged Metar Reports

Daily Weather History Graph

Daily Weather History Graph

Search for Another Location

Airport or City:

Trip Planner

Search our weather history database for the weather conditions in past years. The results will help you decide how hot, cold, wet, or windy it might be!

Date:

Astronomy

Feb. 12, 2014 Rise Set
Actual Time 7:08 AM IST 6:37 PM IST
Civil Twilight 6:46 AM IST 6:59 PM IST
Nautical Twilight 6:20 AM IST 7:25 PM IST
Astronomical Twilight 5:54 AM IST 7:51 PM IST
Moon 4:34 PM IST (2/12) 4:58 AM IST (2/12)
Length of Visible Light 12h 13m
Length of Day
11h 28m
Waxing Gibbous, 93% of the Moon is Illuminated
Feb 12
Waxing Gibbous
Feb 15
Full
Feb 22
Last Quarter
Mar 1
New
Mar 8
First Quarter

Hourly Weather History & Observations

Time (IST) Temp. Heat Index Dew Point Humidity Pressure Visibility Wind Dir Wind Speed Gust Speed Precip Events Conditions
12:10 AM 71.6 °F - 53.6 °F 53% 29.83 in 2.5 mi NE 4.6 mph - N/A   Smoke
12:40 AM 71.6 °F - 51.8 °F 50% 29.83 in 2.5 mi NNE 4.6 mph - N/A   Smoke
1:10 AM 69.8 °F - 51.8 °F 53% 29.80 in 2.5 mi NNE 3.5 mph - N/A   Smoke
1:40 AM 69.8 °F - 48.2 °F 46% 29.80 in 2.5 mi Calm Calm - N/A   Smoke
2:10 AM 69.8 °F - 44.6 °F 40% 29.80 in 2.5 mi NNW 4.6 mph - N/A   Smoke
2:30 AM 63 °F - 54 °F 66% 29.80 in 1 mi Calm Calm - -   Smoke
2:40 AM 69.8 °F - 48.2 °F 46% 29.77 in 2.5 mi NNE 4.6 mph - N/A   Smoke
3:10 AM 69.8 °F - 51.8 °F 53% 29.77 in 2.5 mi Calm Calm - N/A   Smoke
3:40 AM 68.0 °F - 50.0 °F 52% 29.77 in 2.5 mi Calm Calm - N/A   Smoke
4:10 AM 68.0 °F - 51.8 °F 56% 29.77 in 2.5 mi Calm Calm - N/A   Smoke
4:40 AM 68.0 °F - 50.0 °F 52% 29.77 in 2.5 mi Calm Calm - N/A   Smoke
5:10 AM 68.0 °F - 51.8 °F 56% 29.77 in 2.5 mi SSW 4.6 mph - N/A   Smoke
5:30 AM 59 °F - 53 °F 73% 29.77 in 1 mi Calm Calm - -   Haze
5:40 AM 66.2 °F - 51.8 °F 60% 29.77 in 2.5 mi WSW 4.6 mph - N/A   Smoke
6:10 AM 66.2 °F - 51.8 °F 60% 29.77 in 2.2 mi SW 4.6 mph - N/A   Smoke
6:40 AM 66.2 °F - 51.8 °F 60% 29.80 in 2.2 mi Calm Calm - N/A   Smoke
7:40 AM 68.0 °F - 51.8 °F 56% 29.80 in 1.9 mi Calm Calm - N/A   Haze
8:10 AM 69.8 °F - 51.8 °F 53% 29.80 in 1.6 mi SE 3.5 mph - N/A   Haze
8:30 AM 63 °F - 56 °F 71% 29.83 in 1 mi Calm Calm - -   Haze
8:40 AM 69.8 °F - 53.6 °F 56% 29.83 in 1.6 mi South 4.6 mph - N/A   Haze
9:10 AM 71.6 °F - 51.8 °F 50% 29.83 in 1.7 mi Calm Calm - N/A   Haze
10:10 AM 75.2 °F - 46.4 °F 36% 29.86 in 2.2 mi WSW 5.8 mph - N/A   Smoke
10:40 AM 77.0 °F - 44.6 °F 32% 29.86 in 2.2 mi Calm Calm - N/A   Smoke
11:10 AM 78.8 °F - 44.6 °F 30% 29.86 in 2.2 mi West 4.6 mph - N/A   Smoke
11:30 AM 79 °F - 42 °F 17% 29.86 in 1 mi West 3.5 mph - -   Smoke
11:40 AM 78.8 °F - 44.6 °F 30% 29.83 in 2.5 mi WSW 5.8 mph - N/A   Smoke
12:10 PM 80.6 °F - 48.2 °F 32% 29.83 in 2.5 mi West 10.4 mph - N/A   Smoke
1:10 PM 80.6 °F - 50.0 °F 34% 29.80 in 3.1 mi West 8.1 mph - N/A   Smoke
1:40 PM 82.4 °F - 51.8 °F 35% 29.77 in 3.7 mi West 11.5 mph - N/A   Unknown
2:10 PM 80.6 °F 80.3 °F 53.6 °F 39% 29.77 in 3.7 mi West 11.5 mph - N/A   Unknown
2:30 PM 81 °F - 54 °F 28% 29.78 in 1 mi North 5.8 mph - -   Smoke
2:40 PM 78.8 °F - 53.6 °F 42% 29.77 in 3.7 mi West 9.2 mph - N/A   Unknown
3:10 PM 78.8 °F - 55.4 °F 44% 29.77 in 3.7 mi West 11.5 mph - N/A   Unknown
3:40 PM 78.8 °F - 57.2 °F 47% 29.77 in 3.7 mi West 12.7 mph - N/A   Unknown
4:10 PM 78.8 °F - 59.0 °F 51% 29.77 in 3.7 mi West 13.8 mph - N/A   Unknown
4:40 PM 77.0 °F - 59.0 °F 54% 29.77 in 3.7 mi West 13.8 mph - N/A   Unknown
5:10 PM 77.0 °F - 59.0 °F 54% 29.77 in 3.7 mi West 13.8 mph - N/A   Unknown
5:30 PM 79 °F - 58 °F 38% 29.79 in 1 mi NNW 9.2 mph - -   Smoke
5:40 PM 77.0 °F - 59.0 °F 54% 29.77 in 3.7 mi West 11.5 mph - N/A   Unknown
6:10 PM 77.0 °F - 59.0 °F 54% 29.77 in 3.7 mi West 10.4 mph - N/A   Unknown
7:10 PM 75.2 °F - 57.2 °F 53% 29.80 in 3.1 mi West 11.5 mph - N/A   Smoke
7:40 PM 77.0 °F - 59.0 °F 54% 29.80 in 2.5 mi WNW 8.1 mph - N/A   Smoke
8:10 PM 75.2 °F - 59.0 °F 57% 29.80 in 2.5 mi WSW 8.1 mph - N/A   Smoke
8:30 PM 74 °F - 59 °F 50% 29.82 in 1 mi North 4.6 mph - -   Smoke
8:40 PM 75.2 °F - 59.0 °F 57% 29.83 in 2.2 mi SW 6.9 mph - N/A   Smoke
9:10 PM 75.2 °F - 59.0 °F 57% 29.83 in 2.2 mi SW 5.8 mph - N/A   Smoke
9:40 PM 75.2 °F - 59.0 °F 57% 29.83 in 2.2 mi WSW 9.2 mph - N/A   Smoke
10:10 PM 75.2 °F - 59.0 °F 57% 29.83 in 2.2 mi WSW 6.9 mph - N/A   Smoke
10:40 PM 75.2 °F - 59.0 °F 57% 29.83 in 2.2 mi SSW 6.9 mph - N/A   Smoke
11:10 PM 75.2 °F - 59.0 °F 57% 29.83 in 2.2 mi SW 6.9 mph - N/A   Smoke
11:30 PM 72 °F - 60 °F 56% 29.85 in 1 mi Calm Calm - -   Smoke
11:40 PM 73.4 °F - 59.0 °F 61% 29.83 in 2.2 mi SW 4.6 mph - N/A   Smoke